Miscellaneous Local Product
Issued by NWS Hastings, NE

Home | Current Version | Previous Version | Text Only | Print | Product List | Glossary On
Versions: 1 2 3 4 5 6 7 8 9 10 11 12 13 14 15 16 17 18 19 20 21 22 23 24 25 26 27 28 29 30 31 32 33 34 35 36 37 38 39 40 41 42 43 44 45 46 47 48 49 50
000
AXUS43 KGID 281502
MISGRI

GID CWA HOURLY WEATHER ROUNDUP
NATIONAL WEATHER SERVICE HASTINGS NE
900 AM CST SUN DEC 28 2014

NOTE: "FAIR" INDICATES FEW OR NO CLOUDS BELOW 12,000 FEET WITH NO
SIGNIFICANT WEATHER AND/OR OBSTRUCTIONS TO VISIBILITY.

...SOUTH CENTRAL NEBRASKA...

CITY           SKY/WX    TMP DP  RH WIND       PRES   REMARKS
GRAND ISLAND   CLEAR     11   5  77 SW6       30.11R WCI   1
HASTINGS       CLEAR     15   7  70 SW6       30.08R WCI   6
KEARNEY        PTCLDY    10   3  72 W7        30.08S WCI   0
ORD            CLEAR      4   0  83 NW5       30.08R WCI  -5
YORK           PTCLDY    10   7  85 W7        30.12R WCI   0
AURORA         PTCLDY    13   8  83 W5        30.11R WCI   5
LEXINGTON      PTCLDY     6   3  86 W8        30.08R WCI  -7
HOLDREGE       MOCLDY    12   5  75 W6        30.07S WCI   2
HEBRON         CLEAR     17  12  80 CALM      30.16R

...NEBRASKA PANHANDLE...

CITY           SKY/WX    TMP DP  RH WIND       PRES   REMARKS
CHADRON        CLOUDY     8   2  76 N3        29.96S
ALLIANCE       CLOUDY     9   5  84 S5        29.94F WCI   1
SCOTTSBLUFF    CLOUDY     5   1  83 E6        29.95S WCI  -6
SIDNEY         CLOUDY     9   2  73 W7        29.96F WCI  -2

...WESTERN AND NORTH CENTRAL NEBRASKA...

CITY           SKY/WX    TMP DP  RH WIND       PRES   REMARKS
VALENTINE      PTCLDY     1  -3  83 W6        30.02S WCI -10
AINSWORTH      PTCLDY     7   2  81 SW3       30.03R
ONEILL         PTCLDY     6   3  86 W5        30.07R WCI  -2
BROKEN BOW     PTCLDY     9   3  77 CALM      30.04R
IMPERIAL       PTCLDY     5  -1  76 NW5       30.03R WCI  -4
NORTH PLATTE   PTCLDY     1  -3  83 NW3       30.04F
MCCOOK         PTCLDY     8   4  83 W8        30.07S WCI  -4

...EASTERN NEBRASKA...

CITY           SKY/WX    TMP DP  RH WIND       PRES   REMARKS
NORFOLK        CLEAR     10   6  84 W6        30.10R WCI   0
SO SIOUX CITY  PTCLDY     7   5  91 CALM      30.15R
TEKAMAH        PTCLDY    14   9  80 CALM      30.15R
COLUMBUS       PTCLDY     7   0  72 NW5       30.13R WCI  -2
ALBION         PTCLDY     4   0  81 CALM      30.09S
OMAHA EPPLEY   CLEAR     19  15  84 S3        30.17R
OFFUTT AFB     CLEAR     17  14  86 SE2       30.16R
MILLARD        CLEAR     17  13  83 CALM      30.15S
LINCOLN        CLEAR     18  12  77 SW6       30.16S WCI  10
NEBRASKA CITY  SUNNY     20  15  80 SW9       30.16R WCI  10
BEATRICE       SUNNY     17  14  86 CALM      30.17R
FALLS CITY     SUNNY     22  18  85 SW5       30.19R WCI  16

...NORTHERN KANSAS...

CITY           SKY/WX    TMP DP  RH WIND       PRES   REMARKS
GOODLAND       MOCLDY    13   8  81 W3        30.01R
HILL CITY      PTCLDY    10   5  80 W3        30.13R
NORTON         SUNNY     10   3  72 SW6       30.09R WCI   1
PHILLIPSBURG   CLEAR     14   9  79 SW5       30.15R WCI   6
BELOIT         CLEAR     16  12  86 CALM      30.18R
HAYS           CLEAR     16   5  62 CALM      30.13S
RUSSELL        CLEAR     16  14  92 SW6       30.13F WCI   7
CONCORDIA      SUNNY     21  16  81 SW6       30.17R WCI  13
SALINA         SUNNY     22  17  81 CALM      30.20S
TOPEKA         SUNNY     22  17  81 S3        30.24S



USA.gov is the U.S. government's official web portal to all federal, state and local government web resources and services.